FW4433 Weather Reports


time (UTC)temp
C
wind
direction
speed
KPH
gust
KPH
rain 1hr
cm
rain 24hr
cm
rain mn
cm
humidity
%
barometer
mb
20260509054001 21 155 0.0 0.0 0.00 0.28 0.00 61 1010.1
20260509053601 21 160 0.0 0.0 0.00 0.28 0.00 61 1010.2
20260509053106 21 160 0.0 0.0 0.00 0.28 0.00 61 1010.1
20260509052559 21 160 0.0 1.6 0.00 0.28 0.00 60 1009.9
20260509052058 21 352 0.0 1.6 0.00 0.28 0.00 61 1010.2
20260509051603 21 343 0.0 3.2 0.00 0.28 0.00 61 1010.9
20260509051057 21 344 0.0 3.2 0.00 0.28 0.28 61 1011.0
20260509050554 21 333 1.6 3.2 0.00 0.28 0.28 61 1010.7
20260509050055 21 245 0.0 1.6 0.00 0.28 0.28 61 1010.2
20260509045053 21 245 0.0 1.6 0.00 0.28 0.28 61 1009.2
20260509044551 21 180 0.0 1.6 0.00 0.28 0.28 60 1009.2
20260509044052 22 230 0.0 3.2 0.00 0.28 0.28 60 1009.2
20260509043550 22 141 0.0 3.2 0.00 0.28 0.28 60 1009.1
20260509043058 22 134 0.0 6.4 0.00 0.28 0.28 60 1008.8
20260509042650 22 230 0.0 6.4 0.00 0.28 0.28 60 1009.1
20260509042049 22 158 0.0 12.9 0.00 0.28 0.28 59 1009.2
20260509041549 22 150 4.8 12.9 0.00 0.28 0.28 59 1009.3
20260509041048 22 337 0.0 9.7 0.00 0.28 0.28 59 1009.2
20260509040548 22 215 0.0 11.3 0.00 0.28 0.28 59 1009.0
20260509040048 22 172 0.0 6.4 0.00 0.28 0.28 59 1009.2
20260509035046 22 158 1.6 4.8 0.00 0.28 0.28 59 1009.5
20260509034544 22 180 0.0 1.6 0.00 0.28 0.28 59 1010.0
20260509034044 22 194 0.0 1.6 0.00 0.28 0.28 59 1010.4
20260509033543 22 194 0.0 1.6 0.00 0.28 0.28 59 1010.3
20260509033042 22 188 0.0 1.6 0.00 0.28 0.28 59 1010.1
20260509032543 22 192 0.0 3.2 0.00 0.28 0.28 58 1009.8
20260509032041 22 143 0.0 3.2 0.00 0.28 0.28 58 1009.4
20260509031556 22 207 0.0 3.2 0.00 0.28 0.28 59 1009.4
20260509031040 22 158 0.0 3.2 0.00 0.28 0.28 59 1009.6
20260509030539 22 165 0.0 1.6 0.00 0.28 0.28 59 1009.6
20260509030040 22 174 0.0 3.2 0.00 0.28 0.28 59 1009.7
20260509025038 22 72 0.0 3.2 0.00 0.28 0.28 59 1009.3
20260509024539 22 151 0.0 6.4 0.00 0.28 0.28 59 1009.1
20260509024039 22 154 1.6 6.4 0.00 0.28 0.28 59 1008.9
20260509023536 22 262 0.0 8.0 0.00 0.28 0.28 59 1008.7
20260509023038 22 154 1.6 8.0 0.00 0.28 0.28 58 1008.6
20260509022535 22 136 1.6 8.0 0.00 0.28 0.28 58 1008.4
20260509022036 22 129 1.6 12.9 0.00 0.28 0.28 58 1008.5
20260509021535 22 166 3.2 11.3 0.00 0.28 0.28 58 1008.2
20260509021032 22 167 1.6 9.7 0.00 0.28 0.28 58 1008.2
20260509020532 22 130 0.0 4.8 0.00 0.28 0.28 58 1008.3
20260509020030 22 121 1.6 6.4 0.00 0.28 0.28 58 1008.3
20260509015032 22 75 0.0 4.8 0.00 0.28 0.28 58 1008.3
20260509014529 22 127 0.0 4.8 0.00 0.28 0.28 57 1008.3
20260509014029 22 186 0.0 8.0 0.00 0.28 0.28 57 1008.2
20260509013528 22 186 0.0 8.0 0.00 0.28 0.28 57 1008.2
20260509013036 22 160 0.0 1.6 0.00 0.28 0.28 57 1008.2
20260509012528 22 208 0.0 1.6 0.00 0.28 0.28 57 1008.2
20260509012028 22 165 0.0 6.4 0.00 0.28 0.28 57 1008.2
20260509011527 22 155 0.0 6.4 0.00 0.28 0.28 57 1008.2
20260509011029 23 153 1.6 8.0 0.00 0.28 0.28 56 1008.2
20260509010525 23 108 1.6 8.0 0.00 0.28 0.28 56 1008.1
20260509010025 23 220 1.6 9.7 0.00 0.28 0.28 56 1008.1
20260509005022 23 148 1.6 8.0 0.00 0.28 0.28 55 1007.9
20260509004529 23 122 0.0 9.7 0.00 0.28 0.28 55 1007.7
20260509004022 23 173 0.0 11.3 0.00 0.28 0.28 55 1007.7
20260509003522 23 136 3.2 9.7 0.00 0.28 0.28 55 1007.5
20260509003022 23 115 1.6 9.7 0.00 0.28 0.28 55 1007.3
20260509002519 23 143 1.6 9.7 0.00 0.28 0.28 55 1007.5
20260509002026 23 172 3.2 8.0 0.00 0.28 0.28 54 1007.5
20260509001518 23 167 0.0 6.4 0.00 0.28 0.28 55 1007.5
20260509001018 23 141 0.0 6.4 0.00 0.28 0.28 54 1007.5
20260509000516 23 126 0.0 8.0 0.00 0.28 0.28 54 1007.5
20260509000016 23 99 1.6 11.3 0.00 0.28 0.28 53 1007.6
20260508235016 23 179 1.6 9.7 0.00 0.28 0.28 54 1007.9
20260508234515 23 138 0.0 9.7 0.00 0.28 0.28 54 1008.0
20260508234013 23 187 1.6 8.0 0.00 0.28 0.28 54 1008.0
20260508233513 23 245 1.6 9.7 0.00 0.28 0.28 52 1008.0
20260508233012 23 191 1.6 9.7 0.00 0.28 0.28 52 1008.0
20260508232511 23 146 1.6 9.7 0.00 0.28 0.28 52 1008.1
20260508232010 24 151 0.0 8.0 0.00 0.28 0.28 52 1008.1
20260508231509 24 151 0.0 8.0 0.00 0.28 0.28 52 1008.1
20260508231008 24 208 1.6 8.0 0.00 0.28 0.28 52 1008.1
20260508230512 24 143 1.6 8.0 0.00 0.28 0.28 52 1008.2
20260508230006 24 243 0.0 11.3 0.00 0.28 0.28 52 1008.2
20260508225006 25 220 0.0 11.3 0.00 0.28 0.28 51 1008.1
20260508224507 25 115 0.0 4.8 0.00 0.28 0.28 51 1008.1
20260508224010 25 86 0.0 8.0 0.00 0.28 0.28 52 1008.1
20260508223505 25 161 1.6 9.7 0.00 0.28 0.28 51 1008.1
20260508223014 25 111 3.2 9.7 0.00 0.28 0.28 50 1008.1
20260508222506 25 251 1.6 9.7 0.00 0.28 0.28 50 1008.1
20260508222003 25 155 3.2 9.7 0.00 0.28 0.28 50 1008.0
20260508221503 25 314 3.2 9.7 0.00 0.28 0.28 50 1007.9
20260508221003 25 240 0.0 4.8 0.00 0.28 0.28 49 1008.0
20260508220501 25 217 0.0 4.8 0.00 0.28 0.28 50 1007.9
20260508220004 25 111 3.2 9.7 0.00 0.28 0.28 50 1007.9
20260508215002 25 142 1.6 6.4 0.00 0.28 0.28 50 1007.8
20260508214502 25 121 1.6 11.3 0.00 0.28 0.28 50 1007.9
20260508214101 25 145 3.2 11.3 0.00 0.28 0.28 49 1008.0
20260508213603 25 112 1.6 11.3 0.00 0.28 0.28 50 1007.9
20260508213117 25 160 4.8 11.3 0.00 0.28 0.28 50 1007.9
20260508212603 25 159 1.6 12.9 0.00 0.28 0.28 50 1008.0
20260508212057 25 163 1.6 12.9 0.00 0.28 0.28 49 1008.1
20260508211600 25 165 4.8 12.9 0.00 0.28 0.28 49 1008.1
20260508211054 25 160 1.6 9.7 0.00 0.28 0.28 50 1008.3
20260508210555 25 92 1.6 8.0 0.00 0.28 0.28 50 1008.6
20260508210051 23 176 1.6 11.3 0.00 0.28 0.28 51 1008.8
20260508205056 23 146 3.2 11.3 0.00 0.28 0.28 51 1009.3
20260508204614 23 193 3.2 9.7 0.00 0.28 0.28 51 1009.4
20260508204056 24 130 1.6 6.4 0.00 0.28 0.28 50 1009.8
20260508203553 24 152 3.2 6.4 0.00 0.28 0.28 50 1009.8
20260508203057 24 150 0.0 4.8 0.00 0.28 0.28 49 1009.9
20260508202553 25 110 0.0 4.8 0.00 0.28 0.28 49 1009.8
20260508202051 25 141 0.0 6.4 0.00 0.28 0.28 49 1009.9
20260508201606 25 164 0.0 6.4 0.00 0.28 0.28 49 1009.9
20260508201051 25 46 0.0 6.4 0.00 0.28 0.28 48 1009.9
20260508200549 25 141 1.6 6.4 0.00 0.28 0.28 47 1009.9
20260508195043 25 141 0.0 4.8 0.00 0.28 0.28 48 1010.0
20260508194540 25 199 1.6 6.4 0.00 0.28 0.28 47 1010.0
20260508194041 25 42 1.6 8.0 0.00 0.28 0.28 47 1010.0
20260508193538 26 116 1.6 8.0 0.00 0.28 0.28 46 1010.0
20260508193038 26 166 0.0 6.4 0.00 0.28 0.28 45 1010.0
20260508192537 26 212 0.0 4.8 0.00 0.28 0.28 45 1010.0
20260508192037 26 150 0.0 8.0 0.00 0.28 0.28 47 1010.1
20260508191536 26 108 1.6 12.9 0.00 0.28 0.28 46 1010.1
20260508191038 26 167 3.2 11.3 0.00 0.28 0.28 45 1010.2
20260508190535 26 160 1.6 11.3 0.00 0.28 0.28 44 1010.2
20260508190041 26 107 3.2 12.9 0.00 0.28 0.28 45 1010.2
20260508185037 26 117 3.2 11.3 0.00 0.28 0.28 43 1010.2
20260508184537 26 206 1.6 11.3 0.00 0.28 0.28 44 1010.2
20260508184038 26 200 0.0 9.7 0.00 0.28 0.28 44 1010.3
20260508183537 26 152 3.2 9.7 0.00 0.28 0.28 43 1010.4
20260508183036 26 120 1.6 6.4 0.00 0.28 0.28 44 1010.5
20260508182531 25 198 0.0 8.0 0.00 0.28 0.28 45 1010.6
20260508182030 25 178 3.2 11.3 0.00 0.28 0.28 44 1010.7
20260508181544 25 119 3.2 11.3 0.00 0.28 0.28 45 1010.8
20260508181027 25 228 3.2 9.7 0.00 0.28 0.28 46 1011.0
20260508180526 25 195 3.2 9.7 0.00 0.28 0.28 44 1011.1
20260508180026 25 129 3.2 16.1 0.00 0.28 0.28 45 1011.2
20260508175020 25 121 4.8 16.1 0.00 0.28 0.28 44 1011.3
20260508174525 25 150 3.2 12.9 0.00 0.28 0.28 44 1011.3
20260508174018 25 157 1.6 6.4 0.00 0.28 0.28 44 1011.4
20260508173518 25 153 1.6 8.0 0.00 0.28 0.28 45 1011.4
20260508173016 25 204 1.6 8.0 0.00 0.28 0.28 45 1011.4
20260508172515 24 154 0.0 8.0 0.00 0.28 0.28 46 1011.5
20260508172015 24 252 1.6 9.7 0.00 0.28 0.28 46 1011.7
20260508171511 23 157 1.6 9.7 0.00 0.28 0.28 46 1011.9
20260508171009 23 192 0.0 11.3 0.00 0.28 0.28 46 1012.1
20260508170513 23 111 1.6 11.3 0.00 0.28 0.28 46 1012.3
20260508170108 23 160 0.0 11.3 0.00 0.28 0.28 45 1012.4
20260508165007 22 139 1.6 6.4 0.00 0.28 0.28 48 1012.6
20260508164504 22 224 0.0 6.4 0.00 0.28 0.28 49 1012.6
20260508164003 22 195 1.6 6.4 0.00 0.28 0.28 49 1012.7
20260508163603 21 215 0.0 6.4 0.00 0.28 0.28 50 1012.9
20260508163059 21 146 1.6 9.7 0.00 0.28 0.28 49 1013.0
20260508162558 21 263 1.6 9.7 0.00 0.28 0.28 49 1013.1
20260508162057 21 150 1.6 8.0 0.00 0.28 0.28 50 1013.1
20260508161556 21 79 1.6 9.7 0.00 0.28 0.28 50 1013.1
20260508161056 21 175 1.6 9.7 0.00 0.28 0.28 49 1013.2
20260508160556 21 138 0.0 4.8 0.00 0.28 0.28 49 1013.2
20260508160056 21 162 0.0 9.7 0.00 0.28 0.28 50 1013.2
20260508155059 21 162 0.0 9.7 0.00 0.28 0.28 51 1013.3
20260508154559 21 194 0.0 9.7 0.00 0.28 0.28 51 1013.6
20260508154059 20 143 0.0 4.8 0.00 0.28 0.28 51 1013.6
20260508153555 20 174 0.0 9.7 0.00 0.28 0.28 52 1013.7
20260508153059 20 247 0.0 9.7 0.00 0.28 0.28 51 1013.7
20260508152558 20 127 0.0 8.0 0.00 0.28 0.28 51 1013.6
20260508152054 20 129 1.6 8.0 0.00 0.28 0.28 51 1013.6
20260508151553 20 185 1.6 6.4 0.00 0.28 0.28 51 1013.7
20260508151052 20 242 0.0 4.8 0.00 0.28 0.28 53 1013.9
20260508150551 20 97 1.6 4.8 0.00 0.28 0.28 51 1013.7
20260508150050 20 174 0.0 8.0 0.00 0.28 0.28 53 1013.7
20260508145049 20 94 0.0 4.8 0.00 0.28 0.28 53 1013.9
20260508144545 20 139 0.0 6.4 0.00 0.28 0.28 53 1013.6
20260508144043 19 155 0.0 6.4 0.00 0.28 0.28 54 1013.6
20260508143542 19 38 0.0 11.3 0.00 0.28 0.28 55 1013.9
20260508143042 19 219 3.2 11.3 0.00 0.28 0.28 54 1013.9
20260508142541 19 129 3.2 9.7 0.00 0.28 0.28 53 1013.9
20260508142039 18 131 3.2 14.5 0.00 0.28 0.28 54 1014.0
20260508141547 18 154 4.8 14.5 0.00 0.28 0.28 54 1014.0
20260508141036 18 179 1.6 6.4 0.00 0.28 0.28 54 1014.0
20260508140534 17 155 0.0 8.0 0.00 0.28 0.28 55 1014.2
20260508140034 17 184 0.0 8.0 0.00 0.28 0.28 54 1014.2
20260508135034 17 206 0.0 4.8 0.00 0.28 0.28 54 1014.0
20260508134533 17 198 0.0 3.2 0.03 0.28 0.28 55 1014.1
20260508134032 17 201 0.0 4.8 0.10 0.28 0.28 54 1014.0
20260508133531 17 208 0.0 4.8 0.13 0.28 0.28 54 1014.0
20260508133029 17 150 0.0 4.8 0.13 0.28 0.28 55 1013.9
20260508132527 16 173 0.0 3.2 0.13 0.28 0.28 55 1014.1
20260508132027 16 181 0.0 3.2 0.13 0.28 0.28 56 1014.2
20260508131526 16 108 0.0 4.8 0.13 0.28 0.28 55 1014.1
20260508131025 16 156 0.0 4.8 0.13 0.28 0.28 55 1014.1
20260508130527 16 153 1.6 6.4 0.13 0.28 0.28 55 1014.0
20260508130025 16 149 1.6 6.4 0.13 0.28 0.28 57 1014.0
20260508125026 16 105 0.0 1.6 0.13 0.28 0.28 58 1014.5
20260508124525 16 174 0.0 4.8 0.13 0.28 0.28 56 1014.3
20260508124025 16 146 0.0 4.8 0.05 0.20 0.20 55 1014.1
20260508123524 16 131 0.0 1.6 0.00 0.15 0.15 54 1014.4
20260508123023 16 181 0.0 1.6 0.00 0.15 0.15 54 1014.6
20260508122523 16 155 0.0 3.2 0.00 0.15 0.15 54 1014.5
20260508122022 16 117 0.0 3.2 0.00 0.15 0.15 54 1014.3
20260508121522 16 148 0.0 3.2 0.00 0.15 0.15 54 1014.4
20260508121022 16 121 0.0 8.0 0.00 0.15 0.15 55 1014.3
20260508120522 16 58 1.6 8.0 0.00 0.15 0.15 54 1014.2
20260508120021 16 123 0.0 6.4 0.00 0.15 0.15 54 1014.1
20260508115020 16 210 0.0 3.2 0.00 0.15 0.15 54 1014.6
20260508114522 16 214 0.0 4.8 0.00 0.15 0.15 54 1014.5
20260508114019 16 147 0.0 3.2 0.00 0.15 0.15 56 1014.2
20260508113519 16 176 0.0 1.6 0.00 0.15 0.15 59 1014.3
20260508113018 16 193 0.0 0.0 0.00 0.15 0.15 59 1014.3
20260508112517 16 203 0.0 0.0 0.00 0.15 0.15 59 1014.3
20260508112016 16 203 0.0 4.8 0.00 0.15 0.15 58 1014.2
20260508111517 16 201 0.0 4.8 0.00 0.15 0.15 58 1013.7
20260508111017 16 173 1.6 3.2 0.00 0.15 0.15 59 1013.6
20260508110521 16 355 0.0 1.6 0.00 0.15 0.15 59 1014.4
20260508110014 16 355 0.0 4.8 0.00 0.15 0.15 59 1014.6
20260508105013 16 344 0.0 1.6 0.00 0.15 0.15 59 1014.7
20260508104512 16 344 0.0 1.6 0.00 0.15 0.15 58 1014.2
20260508104012 16 344 0.0 1.6 0.00 0.15 0.15 58 1014.4
20260508103511 16 344 0.0 1.6 0.00 0.15 0.15 58 1014.8
20260508103025 16 283 0.0 0.0 0.00 0.15 0.15 57 1014.0
20260508102509 16 283 0.0 0.0 0.00 0.15 0.15 57 1013.4
20260508102012 16 283 0.0 0.0 0.00 0.15 0.15 57 1013.5
20260508101515 16 243 0.0 1.6 0.00 0.15 0.15 56 1013.7
20260508101008 16 106 0.0 6.4 0.00 0.15 0.15 55 1013.3
20260508100507 16 214 1.6 6.4 0.00 0.15 0.15 54 1013.1
20260508100007 16 147 0.0 1.6 0.05 0.15 0.15 55 1013.3
20260508095008 16 142 0.0 1.6 0.05 0.15 0.15 57 1013.2
20260508094506 16 159 0.0 0.0 0.05 0.15 0.15 58 1013.3
20260508094005 16 191 0.0 1.6 0.05 0.15 0.15 59 1013.3
20260508093507 16 231 0.0 1.6 0.08 0.15 0.15 59 1013.3
20260508093005 16 233 0.0 1.6 0.10 0.15 0.15 59 1013.3
20260508092503 16 233 0.0 1.6 0.10 0.15 0.15 59 1013.6
20260508092003 16 233 0.0 1.6 0.10 0.15 0.15 59 1013.2
20260508091501 16 279 0.0 0.0 0.10 0.15 0.15 59 1013.5
20260508091002 16 279 0.0 0.0 0.10 0.15 0.15 59 1013.6
20260508090603 16 279 0.0 1.6 0.15 0.15 0.15 59 1013.8
20260508090127 16 279 0.0 1.6 0.15 0.15 0.15 59 1013.8
20260508085659 16 317 0.0 1.6 0.10 0.10 0.10 59 1014.1
20260508085059 16 317 0.0 1.6 0.10 0.10 0.10 59 1014.2
20260508084609 16 317 0.0 1.6 0.10 0.10 0.10 59 1014.3
20260508084058 16 211 0.0 8.0 0.10 0.10 0.10 58 1014.2
20260508083601 16 190 1.6 9.7 0.08 0.08 0.08 58 1013.3
20260508083117 16 179 4.8 8.0 0.08 0.08 0.08 59 1012.9
20260508082555 16 199 0.0 0.0 0.05 0.05 0.05 59 1014.1
20260508082053 16 200 0.0 0.0 0.05 0.05 0.05 60 1014.1
20260508081552 16 200 0.0 0.0 0.05 0.05 0.05 61 1014.9
20260508081049 17 200 0.0 0.0 0.05 0.05 0.05 61 1014.4
20260508080548 17 200 0.0 0.0 0.03 0.03 0.03 59 1014.3
20260508080050 17 29 0.0 0.0 0.00 0.00 0.00 59 1014.7
20260508075647 17 29 0.0 0.0 0.00 0.00 0.00 59 1015.5
20260508075048 17 29 0.0 0.0 0.00 0.00 0.00 59 1015.7
20260508074552 17 29 0.0 0.0 0.00 0.00 0.00 59 1015.6
20260508074048 17 29 0.0 0.0 0.00 0.00 0.00 59 1015.2
20260508073545 17 30 0.0 0.0 0.00 0.00 0.00 59 1015.2
20260508073047 17 30 0.0 0.0 0.00 0.00 0.00 59 1014.7
20260508072544 17 30 0.0 0.0 0.00 0.00 0.00 59 1014.7
20260508072046 17 30 0.0 0.0 0.00 0.00 0.00 58 1014.6
20260508071543 17 30 0.0 0.0 0.00 0.00 0.00 58 1014.8
20260508071041 17 30 0.0 0.0 0.00 0.00 0.00 58 1014.8
20260508070541 17 30 0.0 0.0 0.00 0.00 0.00 58 1014.9
20260508070043 17 145 0.0 0.0 0.00 0.00 0.00 58 1014.9
20260508065641 17 192 0.0 0.0 0.00 0.00 0.00 57 1014.8
20260508065037 17 192 0.0 0.0 0.00 0.00 0.00 57 1014.8
20260508064548 17 192 0.0 0.0 0.00 0.00 0.00 58 1015.2
20260508064035 17 192 0.0 0.0 0.00 0.00 0.00 57 1015.3
20260508063536 17 192 0.0 0.0 0.00 0.00 0.00 57 1015.4
20260508063034 17 192 0.0 0.0 0.00 0.00 0.00 57 1015.4
20260508062533 17 191 0.0 0.0 0.00 0.00 0.00 56 1015.4
20260508062032 17 192 0.0 0.0 0.00 0.00 0.00 56 1015.3
20260508061535 17 192 0.0 0.0 0.00 0.00 0.00 56 1015.6
20260508061032 17 192 0.0 0.0 0.00 0.00 0.00 56 1015.5
20260508060533 17 191 0.0 1.6 0.00 0.00 0.00 56 1015.3
20260508060031 17 203 0.0 0.0 0.00 0.00 0.00 56 1015.2
20260508055630 17 199 0.0 0.0 0.00 0.00 0.00 57 1015.4
20260508055031 17 199 0.0 0.0 0.00 0.00 0.00 57 1015.5
20260508054531 17 199 0.0 0.0 0.00 0.00 0.00 57 1015.3
20260508054030 17 199 0.0 0.0 0.00 0.00 0.00 57 1015.3